Change the Weather History Date:

Thursday, March 29, 2012

  Actual Average Record
Temperature  
Mean Temperature 71 °F -  
Max Temperature 83 °F 71 °F 87 °F (2007)
Min Temperature 60 °F 47 °F 38 °F (2013)
Cooling Degree Days 6    
Growing Degree Days 21 (Base 50)    
Moisture  
Dew Point 61 °F    
Average Humidity 89    
Maximum Humidity 100    
Minimum Humidity 32    
Precipitation  
Precipitation 0.00 in - - ()
Sea Level Pressure  
Sea Level Pressure 30.04 in    
Wind  
Wind Speed 3 mph (WSW)    
Max Wind Speed 8 mph    
Max Gust Speed -    
Visibility 6 miles    
Events Fog    
Averages and records for this station are not official NWS values.
T = Trace of Precipitation, MM = Missing Value Source: NWS Daily Summary

Daily Weather History Graph

Daily Weather History Graph

Search for Another Location

Airport or City:

Trip Planner

Search our weather history database for the weather conditions in past years. The results will help you decide how hot, cold, wet, or windy it might be!

Date:

Astronomy

Mar. 29, 2012 Rise Set
Actual Time 6:34 AM CDT 7:00 PM CDT
Civil Twilight 6:10 AM CDT 7:24 PM CDT
Nautical Twilight 5:41 AM CDT 7:53 PM CDT
Astronomical Twilight 5:13 AM CDT 8:22 PM CDT
Moon 11:01 AM CDT (3/29) 12:32 AM CDT (3/29)
Length of Visible Light 13h 14m
Length of Day
12h 25m
Waxing Crescent, 39% of the Moon is Illuminated
Mar 29
Waxing Crescent
Mar 30
First Quarter
Apr 6
Full
Apr 13
Last Quarter
Apr 21
New

Hourly Weather History & Observations

Time (CDT) Temp. Heat Index Dew Point Humidity Pressure Visibility Wind Dir Wind Speed Gust Speed Precip Events Conditions
12:00 AM 60.8 °F - 60.8 °F 100% 30.07 in 10.0 mi Calm Calm - N/A   Partly Cloudy
12:08 AM 60.8 °F - 60.8 °F 100% 30.07 in 10.0 mi WSW 3.5 mph - N/A   Mostly Cloudy
12:10 AM 60.8 °F - 60.8 °F 100% 30.07 in 10.0 mi SW 3.5 mph - N/A   Mostly Cloudy
12:35 AM 64.4 °F - 64.4 °F 100% 30.06 in 7.0 mi WSW 5.8 mph - N/A   Overcast
12:47 AM 64.4 °F - 64.4 °F 100% 30.06 in 2.5 mi WSW 8.1 mph - N/A   Overcast
12:49 AM 64.4 °F - 64.4 °F 100% 30.06 in 2.0 mi West 8.1 mph - N/A   Overcast
12:55 AM 64.9 °F - 64.4 °F 98% 30.06 in 2.0 mi West 8.1 mph - N/A   Overcast
12:57 AM 64.4 °F - 64.4 °F 100% 30.06 in 3.0 mi WSW 8.1 mph - N/A   Overcast
1:03 AM 64.4 °F - 64.4 °F 100% 30.06 in 4.0 mi West 6.9 mph - N/A   Overcast
1:05 AM 64.4 °F - 64.4 °F 100% 30.06 in 3.0 mi WSW 5.8 mph - N/A   Overcast
1:08 AM 64.4 °F - 64.4 °F 100% 30.06 in 2.5 mi West 6.9 mph - N/A   Overcast
1:15 AM 64.4 °F - 64.4 °F 100% 30.06 in 3.0 mi WSW 5.8 mph - N/A   Overcast
1:24 AM 64.4 °F - 64.4 °F 100% 30.06 in 5.0 mi WSW 6.9 mph - N/A   Overcast
1:40 AM 64.4 °F - 64.4 °F 100% 30.05 in 8.0 mi WSW 3.5 mph - N/A   Overcast
1:41 AM 64.4 °F - 64.4 °F 100% 30.05 in 9.0 mi Calm Calm - N/A   Overcast
1:49 AM 64.4 °F - 64.4 °F 100% 30.05 in 9.0 mi Calm Calm - N/A   Overcast
1:55 AM 64.0 °F - 63.1 °F 97% 30.05 in 9.0 mi Calm Calm - N/A   Overcast
1:59 AM 64.4 °F - 62.6 °F 94% 30.04 in 9.0 mi Calm Calm - N/A   Mostly Cloudy
2:13 AM 64.4 °F - 62.6 °F 94% 30.04 in 8.0 mi Calm Calm - N/A   Overcast
2:16 AM 64.4 °F - 64.4 °F 100% 30.04 in 8.0 mi Calm Calm - N/A   Mostly Cloudy
2:53 AM 64.4 °F - 62.6 °F 94% 30.04 in 7.0 mi Calm Calm - N/A   Scattered Clouds
2:54 AM 64.4 °F - 62.6 °F 94% 30.04 in 7.0 mi Calm Calm - N/A   Mostly Cloudy
2:55 AM 63.5 °F - 62.4 °F 96% 30.04 in 4.0 mi Calm Calm - N/A   Mostly Cloudy
2:57 AM 62.6 °F - 62.6 °F 100% 30.04 in 2.0 mi Calm Calm - N/A   Mostly Cloudy
2:58 AM 62.6 °F - 62.6 °F 100% 30.04 in 1.8 mi Calm Calm - N/A   Mostly Cloudy
3:05 AM 62.6 °F - 62.6 °F 100% 30.04 in 2.0 mi Calm Calm - N/A   Mostly Cloudy
3:07 AM 62.6 °F - 62.6 °F 100% 30.04 in 4.0 mi Calm Calm - N/A   Mostly Cloudy
3:12 AM 62.6 °F - 62.6 °F 100% 30.03 in 8.0 mi Calm Calm - N/A   Mostly Cloudy
3:24 AM 64.4 °F - 62.6 °F 94% 30.04 in 7.0 mi Calm Calm - N/A   Overcast
3:36 AM 64.4 °F - 64.4 °F 100% 30.04 in 6.0 mi Calm Calm - N/A   Overcast
3:55 AM 63.9 °F - 63.3 °F 98% 30.04 in 5.0 mi NW 3.5 mph - N/A   Overcast
4:02 AM 64.4 °F - 62.6 °F 94% 30.03 in 2.5 mi Calm Calm - N/A   Overcast
4:05 AM 62.6 °F - 62.6 °F 100% 30.03 in 1.8 mi Calm Calm - N/A   Overcast
4:10 AM 62.6 °F - 62.6 °F 100% 30.03 in 1.2 mi NW 3.5 mph - N/A   Overcast
4:12 AM 62.6 °F - 62.6 °F 100% 30.03 in 1.0 mi Calm Calm - N/A   Overcast
4:15 AM 62.6 °F - 62.6 °F 100% 30.03 in 0.8 mi WNW 4.6 mph - N/A   Overcast
4:18 AM 62.6 °F - 62.6 °F 100% 30.03 in 0.5 mi Calm Calm - N/A Fog Fog
4:23 AM 62.6 °F - 62.6 °F 100% 30.03 in 0.8 mi NW 4.6 mph - N/A   Mist
4:24 AM 62.6 °F - 62.6 °F 100% 30.03 in 0.8 mi NW 3.5 mph - N/A   Mist
4:28 AM 62.6 °F - 62.6 °F 100% 30.04 in 1.0 mi WNW 3.5 mph - N/A   Overcast
4:31 AM 62.6 °F - 62.6 °F 100% 30.04 in 0.8 mi Calm Calm - N/A   Overcast
4:41 AM 62.6 °F - 62.6 °F 100% 30.03 in 1.0 mi West 4.6 mph - N/A   Overcast
4:48 AM 62.6 °F - 62.6 °F 100% 30.04 in 0.8 mi NW 3.5 mph - N/A   Overcast
4:55 AM 62.8 °F - 62.4 °F 99% 30.04 in 0.8 mi Calm Calm - N/A   Overcast
4:57 AM 62.6 °F - 62.6 °F 100% 30.04 in 1.0 mi Calm Calm - N/A   Overcast
5:01 AM 62.6 °F - 62.6 °F 100% 30.04 in 1.2 mi Calm Calm - N/A   Overcast
5:02 AM 62.6 °F - 62.6 °F 100% 30.04 in 1.5 mi Calm Calm - N/A   Overcast
5:05 AM 62.6 °F - 62.6 °F 100% 30.04 in 2.0 mi Calm Calm - N/A   Overcast
5:07 AM 62.6 °F - 62.6 °F 100% 30.04 in 4.0 mi NNW 3.5 mph - N/A   Overcast
5:20 AM 62.6 °F - 62.6 °F 100% 30.04 in 8.0 mi Calm Calm - N/A   Overcast
5:28 AM 62.6 °F - 62.6 °F 100% 30.04 in 9.0 mi WNW 3.5 mph - N/A   Overcast
5:55 AM 61.9 °F - 61.0 °F 97% 30.05 in 9.0 mi Calm Calm - N/A   Overcast
6:55 AM 61.7 °F - 60.8 °F 97% 30.06 in 8.0 mi NNW 3.5 mph - N/A   Overcast
7:41 AM 62.6 °F - 60.8 °F 94% 30.07 in 6.0 mi Calm Calm - N/A   Overcast
7:55 AM 62.4 °F - 61.3 °F 96% 30.08 in 8.0 mi Calm Calm - N/A   Overcast
8:15 AM 62.6 °F - 60.8 °F 94% 30.08 in 10.0 mi Calm Calm - N/A   Overcast
8:38 AM 62.6 °F - 60.8 °F 94% 30.08 in 10.0 mi Calm Calm - N/A   Overcast
8:44 AM 62.6 °F - 60.8 °F 94% 30.08 in 10.0 mi Calm Calm - N/A   Overcast
8:55 AM 64.0 °F - 61.0 °F 90% 30.08 in 10.0 mi Calm Calm - N/A   Mostly Cloudy
9:04 AM 64.4 °F - 60.8 °F 88% 30.08 in 10.0 mi Calm Calm - N/A   Scattered Clouds
9:55 AM 68.7 °F - 61.2 °F 77% 30.08 in 10.0 mi Calm Calm - N/A   Clear
10:55 AM 74.1 °F - 60.1 °F 61% 30.08 in 10.0 mi Calm Calm - N/A   Partly Cloudy
11:55 AM 77.0 °F - 55.4 °F 47% 30.05 in 10.0 mi Calm Calm - N/A   Clear
12:55 PM 81.3 °F 80.8 °F 54.0 °F 39% 30.02 in 10.0 mi Variable 4.6 mph - N/A   Scattered Clouds
1:55 PM 81.3 °F - 49.1 °F 32% 29.99 in 10.0 mi Calm Calm - N/A   Scattered Clouds
2:55 PM 82.4 °F - 50.4 °F 33% 29.97 in 10.0 mi SSW 6.9 mph - N/A   Partly Cloudy
3:55 PM 82.6 °F - 52.0 °F 35% 29.95 in 10.0 mi WSW 5.8 mph - N/A   Scattered Clouds
4:55 PM 80.6 °F - 51.4 °F 36% 29.95 in 10.0 mi South 5.8 mph - N/A   Mostly Cloudy
5:55 PM 80.1 °F 80.1 °F 54.1 °F 41% 29.95 in 10.0 mi WSW 5.8 mph - N/A   Clear
6:55 PM 76.3 °F - 50.9 °F 41% 29.96 in 10.0 mi SSW 5.8 mph - N/A   Mostly Cloudy
7:55 PM 73.8 °F - 58.5 °F 59% 29.98 in 10.0 mi SSW 8.1 mph - N/A   Mostly Cloudy
8:55 PM 71.6 °F - 58.5 °F 63% 30.00 in 10.0 mi SSW 6.9 mph - N/A   Partly Cloudy
9:55 PM 68.4 °F - 59.5 °F 73% 30.01 in 10.0 mi SSW 5.8 mph - N/A   Partly Cloudy
10:55 PM 66.2 °F - 59.7 °F 80% 30.00 in 10.0 mi SSW 4.6 mph - N/A   Scattered Clouds
11:55 PM 64.8 °F - 60.6 °F 86% 30.00 in 10.0 mi SSW 4.6 mph - N/A   Partly Cloudy